Kenosha, WI

9:13 AM CST on February 25, 2017 (GMT -0600)
Kenosha Regional

Weather History for KENW - August, 2014

Change the Weather History Date:

Wednesday, August 20, 2014

  Actual Average Record
Temperature  
Mean Temperature 72 °F -  
Max Temperature 84 °F 76 °F 96 °F (1955)
Min Temperature 61 °F 60 °F 45 °F (1950)
Cooling Degree Days 8    
Growing Degree Days 22 (Base 50)    
Moisture  
Dew Point 65 °F    
Average Humidity 80    
Maximum Humidity 97    
Minimum Humidity 56    
Precipitation  
Precipitation 0.00 in - - ()
Sea Level Pressure  
Sea Level Pressure 29.86 in    
Wind  
Wind Speed 5 mph (West)    
Max Wind Speed 12 mph    
Max Gust Speed -    
Visibility 9 miles    
Events      
Averages and records for this station are not official NWS values.
T = Trace of Precipitation, MM = Missing Value Source: NWS Daily Summary

Daily Weather History Graph

Daily Weather History Graph

Search for Another Location

Airport or City:

Trip Planner

Search our weather history database for the weather conditions in past years. The results will help you decide how hot, cold, wet, or windy it might be!

Date:

Astronomy

Aug. 20, 2014 Rise Set
Actual Time 6:03 AM CDT 7:45 PM CDT
Civil Twilight 5:33 AM CDT 8:15 PM CDT
Nautical Twilight 4:57 AM CDT 8:51 PM CDT
Astronomical Twilight 4:18 AM CDT 9:30 PM CDT
Moon 1:41 AM CDT (8/20) 4:32 PM CDT (8/20)
Length of Visible Light 14h 41m
Length of Day
13h 41m
Waning Crescent, 20% of the Moon is Illuminated
Aug 20
Waning Crescent
Aug 25
New
Sep 2
First Quarter
Sep 8
Full
Sep 15
Last Quarter

Hourly Weather History & Observations

Time (CDT) Temp. Heat Index Dew Point Humidity Pressure Visibility Wind Dir Wind Speed Gust Speed Precip Events Conditions
12:53 AM 63.0 °F - 62.1 °F 97% 29.78 in 10.0 mi Calm Calm - N/A   Clear
1:53 AM 64.0 °F - 63.0 °F 96% 29.78 in 9.0 mi West 4.6 mph - N/A   Mostly Cloudy
2:53 AM 63.0 °F - 61.0 °F 93% 29.78 in 10.0 mi West 6.9 mph - N/A   Clear
3:53 AM 63.0 °F - 62.1 °F 97% 29.79 in 9.0 mi West 5.8 mph - N/A   Clear
4:53 AM 63.0 °F - 62.1 °F 97% 29.81 in 10.0 mi West 4.6 mph - N/A   Clear
5:53 AM 61.0 °F - 60.1 °F 97% 29.82 in 8.0 mi WSW 4.6 mph - N/A   Clear
6:53 AM 63.0 °F - 62.1 °F 97% 29.83 in 7.0 mi SW 4.6 mph - N/A   Clear
7:53 AM 68.0 °F - 64.9 °F 90% 29.85 in 10.0 mi WSW 3.5 mph - N/A   Clear
8:53 AM 73.0 °F - 66.9 °F 81% 29.86 in 10.0 mi WSW 6.9 mph - N/A   Clear
9:53 AM 77.0 °F - 66.9 °F 71% 29.87 in 10.0 mi West 5.8 mph - N/A   Clear
10:53 AM 79.0 °F - 66.0 °F 64% 29.87 in 10.0 mi West 10.4 mph - N/A   Clear
11:53 AM 80.1 °F 81.9 °F 64.9 °F 60% 29.88 in 10.0 mi West 9.2 mph - N/A   Partly Cloudy
12:53 PM 80.1 °F 81.9 °F 64.9 °F 60% 29.90 in 10.0 mi WSW 11.5 mph - N/A   Mostly Cloudy
1:53 PM 82.9 °F 85.0 °F 66.0 °F 56% 29.88 in 10.0 mi WSW 6.9 mph - N/A   Partly Cloudy
2:53 PM 82.9 °F 85.4 °F 66.9 °F 58% 29.87 in 10.0 mi WNW 9.2 mph - N/A   Scattered Clouds
3:53 PM 84.0 °F 87.0 °F 68.0 °F 58% 29.86 in 10.0 mi West 6.9 mph - N/A   Clear
4:53 PM 84.0 °F 86.5 °F 66.9 °F 56% 29.86 in 10.0 mi WNW 6.9 mph - N/A   Clear
5:53 PM 81.0 °F 83.8 °F 68.0 °F 65% 29.87 in 10.0 mi West 5.8 mph - N/A   Clear
6:53 PM 73.9 °F - 69.1 °F 85% 29.88 in 10.0 mi ENE 8.1 mph - N/A   Scattered Clouds
7:53 PM 71.1 °F - 68.0 °F 90% 29.88 in 5.0 mi NE 6.9 mph - N/A   Mostly Cloudy
8:53 PM 70.0 °F - 68.0 °F 93% 29.91 in 5.0 mi NE 4.6 mph - N/A   Overcast
9:53 PM 71.1 °F - 66.9 °F 87% 29.92 in 10.0 mi East 6.9 mph - N/A   Overcast
10:53 PM 71.1 °F - 64.9 °F 81% 29.94 in 10.0 mi East 9.2 mph - N/A   Scattered Clouds
11:53 PM 69.1 °F - 64.0 °F 84% 29.96 in 10.0 mi East 5.8 mph - N/A   Scattered Clouds